FW0532 Weather Reports


Display with metric or nautical units.
time (UTC)temp
F
wind
direction
speed
MPH
gust
MPH
rain 1hr
in
rain 24hr
in
rain mn
in
humidity
%
barometer
mb
20260903190840 93 182 3.0 13.0 0.00 0.00 0.00 59 1014.3
20260903185840 93 202 9.0 11.0 0.00 0.00 0.00 56 1014.4
20260903185339 93 192 5.0 12.0 0.00 0.00 0.00 57 1014.4
20260903184840 93 210 6.0 12.0 0.00 0.00 0.00 56 1014.4
20260903184339 93 219 3.0 10.0 0.00 0.00 0.00 58 1014.4
20260903183839 93 183 4.0 10.0 0.00 0.00 0.00 55 1014.5
20260903183339 93 211 6.0 10.0 0.00 0.00 0.00 58 1014.5
20260903182839 93 204 4.0 10.0 0.00 0.00 0.00 56 1014.6
20260903182338 93 165 2.0 9.0 0.00 0.00 0.00 58 1014.5
20260903181839 92 180 5.0 10.0 0.00 0.00 0.00 59 1014.5
20260903181338 93 213 6.0 10.0 0.00 0.00 0.00 57 1014.5
20260903180838 93 234 1.0 9.0 0.00 0.00 0.00 58 1014.5
20260903180338 93 221 5.0 9.0 0.00 0.00 0.00 58 1014.6
20260903175838 93 178 4.0 10.0 0.00 0.00 0.00 59 1014.5
20260903174838 92 165 3.0 10.0 0.00 0.00 0.00 60 1014.8
20260903174337 92 186 2.0 10.0 0.00 0.00 0.00 59 1014.8
20260903173837 92 165 4.0 10.0 0.00 0.00 0.00 60 1014.9
20260903172837 92 216 3.0 12.0 0.00 0.00 0.00 62 1015.1
20260903172338 92 196 6.0 11.0 0.00 0.00 0.00 59 1015.0
20260903171837 93 187 3.0 7.0 0.00 0.00 0.00 60 1014.9
20260903170837 93 184 0.0 5.0 0.00 0.00 0.00 59 1015.1
20260903170336 93 247 2.0 5.0 0.00 0.00 0.00 60 1015.0
20260903165836 92 186 1.0 5.0 0.00 0.00 0.00 61 1015.1
20260903165336 92 259 2.0 7.0 0.00 0.00 0.00 61 1015.0
20260903164835 92 42 1.0 7.0 0.00 0.00 0.00 64 1015.3
20260903164335 92 156 2.0 7.0 0.00 0.00 0.00 63 1015.4
20260903163835 92 173 1.0 7.0 0.00 0.00 0.00 64 1015.4
20260903163336 92 221 7.0 7.0 0.00 0.00 0.00 64 1015.4
20260903162835 92 27 2.0 6.0 0.00 0.00 0.00 60 1015.3
20260903162335 92 160 1.0 5.0 0.00 0.00 0.00 67 1015.4
20260903161334 91 271 3.0 7.0 0.00 0.00 0.00 63 1015.5
20260903160835 91 66 2.0 7.0 0.00 0.00 0.00 64 1015.4
20260903160334 91 155 3.0 7.0 0.00 0.00 0.00 65 1015.6
20260903155334 91 317 6.0 6.0 0.00 0.00 0.00 63 1015.6
20260903154834 91 238 0.0 6.0 0.00 0.00 0.00 66 1015.8
20260903154334 91 53 2.0 7.0 0.00 0.00 0.00 67 1015.8
20260903153834 91 301 0.0 7.0 0.00 0.00 0.00 64 1015.7
20260903152833 90 246 2.0 5.0 0.00 0.00 0.00 64 1015.6
20260903152333 89 189 0.0 4.0 0.00 0.00 0.00 67 1015.7
20260903151833 89 157 1.0 4.0 0.00 0.00 0.00 67 1015.6
20260903151333 89 194 1.0 5.0 0.00 0.00 0.00 68 1015.5
20260903150833 89 248 3.0 5.0 0.00 0.00 0.00 71 1015.5
20260903145832 88 209 2.0 5.0 0.00 0.00 0.00 70 1015.5
20260903145332 88 339 2.0 5.0 0.00 0.00 0.00 69 1015.5
20260903144832 87 159 2.0 5.0 0.00 0.00 0.00 70 1015.4
20260903144332 87 201 1.0 6.0 0.00 0.00 0.00 70 1015.3
20260903143832 87 248 2.0 6.0 0.00 0.00 0.00 70 1015.4
20260903142832 87 213 2.0 5.0 0.00 0.00 0.00 74 1015.5
20260903142331 86 230 1.0 5.0 0.00 0.00 0.00 72 1015.4
20260903141831 86 229 1.0 6.0 0.00 0.00 0.00 73 1015.5
20260903141331 86 184 2.0 6.0 0.00 0.00 0.00 74 1015.5
20260903140331 85 232 0.0 5.0 0.00 0.00 0.00 74 1015.6
20260903135830 84 229 2.0 7.0 0.00 0.00 0.00 75 1015.6
20260903135330 84 169 1.0 7.0 0.00 0.00 0.00 76 1015.5
20260903134830 83 179 4.0 4.0 0.00 0.00 0.00 77 1015.6
20260903133830 82 175 2.0 5.0 0.00 0.00 0.00 77 1015.6
20260903133330 82 184 2.0 4.0 0.00 0.00 0.00 80 1015.6
20260903132829 81 179 3.0 4.0 0.00 0.00 0.00 80 1015.7
20260903132329 81 201 2.0 5.0 0.00 0.00 0.00 80 1015.7
20260903131829 80 221 2.0 5.0 0.00 0.00 0.00 81 1015.7
20260903131329 80 180 0.0 5.0 0.00 0.00 0.00 81 1015.8
20260903130829 80 190 1.0 5.0 0.00 0.00 0.00 81 1015.9
20260903130328 79 184 1.0 5.0 0.00 0.00 0.00 82 1015.7
20260903125829 79 187 2.0 6.0 0.00 0.00 0.00 83 1015.9
20260903125328 79 190 4.0 6.0 0.00 0.00 0.00 83 1015.9
20260903124828 78 201 3.0 3.0 0.00 0.00 0.00 84 1015.9
20260903124328 78 200 2.0 3.0 0.00 0.00 0.00 84 1015.9
20260903123828 78 211 3.0 4.0 0.00 0.00 0.00 84 1015.9
20260903123328 77 211 1.0 4.0 0.00 0.00 0.00 84 1015.8
20260903122828 77 211 2.0 3.0 0.00 0.00 0.00 86 1015.8
20260903122327 76 213 0.0 0.0 0.00 0.00 0.00 86 1015.8
20260903121827 76 213 0.0 0.0 0.00 0.00 0.00 88 1015.8
20260903121327 75 213 0.0 0.0 0.00 0.00 0.00 89 1015.7
20260903120827 75 213 0.0 0.0 0.00 0.00 0.00 89 1015.7
20260903115827 74 213 0.0 0.0 0.00 0.00 0.00 90 1015.7
20260903115326 74 213 0.0 0.0 0.00 0.00 0.00 90 1015.7
20260903114827 74 213 0.0 0.0 0.00 0.00 0.00 89 1015.7
20260903114327 74 213 0.0 0.0 0.00 0.00 0.00 88 1015.6
20260903113826 74 213 0.0 0.0 0.00 0.00 0.00 88 1015.6
20260903113326 74 213 0.0 0.0 0.00 0.00 0.00 87 1015.4
20260903112826 75 213 0.0 1.0 0.00 0.00 0.00 87 1015.4
20260903112326 75 213 0.0 1.0 0.00 0.00 0.00 87 1015.3
20260903111325 75 213 0.0 0.0 0.00 0.00 0.00 86 1015.2
20260903110826 75 213 0.0 2.0 0.00 0.00 0.00 86 1015.1
20260903110325 75 213 0.0 2.0 0.00 0.00 0.00 85 1015.1
20260903105825 76 234 0.0 2.0 0.00 0.00 0.00 85 1015.1
20260903104825 76 236 0.0 3.0 0.00 0.00 0.00 84 1015.2
20260903104325 76 211 1.0 4.0 0.00 0.00 0.00 84 1015.2
20260903102824 76 232 0.0 5.0 0.00 0.00 0.00 84 1014.9
20260903102324 76 205 1.0 3.0 0.00 0.00 0.00 84 1015.0
20260903101824 76 219 1.0 4.0 0.00 0.00 0.00 84 1015.0
20260903101324 76 236 0.0 4.0 0.00 0.00 0.00 84 1015.0
20260903100323 76 258 0.0 4.0 0.00 0.00 0.00 84 1014.9
20260903095823 77 258 1.0 4.0 0.00 0.00 0.00 84 1014.9
20260903094823 77 198 1.0 5.0 0.00 0.00 0.00 83 1014.9
20260903093823 77 237 2.0 5.0 0.00 0.00 0.00 83 1014.9
20260903093322 77 189 1.0 5.0 0.00 0.00 0.00 84 1014.8
20260903092822 77 226 0.0 3.0 0.00 0.00 0.00 84 1014.8
20260903092322 77 203 0.0 3.0 0.00 0.00 0.00 84 1014.9
20260903091822 77 196 0.0 4.0 0.00 0.00 0.00 84 1015.1
20260903091321 77 210 0.0 5.0 0.00 0.00 0.00 84 1014.9
20260903090822 77 240 0.0 5.0 0.00 0.00 0.00 84 1014.8
20260903090321 77 217 2.0 5.0 0.00 0.00 0.00 84 1014.7
20260903085821 77 213 2.0 5.0 0.00 0.00 0.00 84 1014.8
20260903085321 76 202 2.0 5.0 0.00 0.00 0.00 84 1014.7
20260903084821 76 202 0.0 3.0 0.00 0.00 0.00 84 1014.8
20260903084321 76 206 2.0 3.0 0.00 0.00 0.00 85 1014.8
20260903083821 76 237 0.0 3.0 0.00 0.00 0.00 85 1014.8
20260903083320 76 223 1.0 3.0 0.00 0.00 0.00 85 1014.8
20260903082320 76 244 0.0 2.0 0.00 0.00 0.00 85 1014.8
20260903081820 76 213 0.0 2.0 0.00 0.00 0.00 86 1015.0
20260903081320 76 226 0.0 2.0 0.00 0.00 0.00 85 1015.0
20260903080819 76 226 0.0 2.0 0.00 0.00 0.00 85 1014.9
20260903080319 76 223 0.0 1.0 0.00 0.00 0.00 85 1014.9
20260903075820 76 223 0.0 1.0 0.00 0.00 0.00 85 1014.9
20260903075319 77 225 0.0 3.0 0.00 0.00 0.00 84 1014.9
20260903074819 77 227 0.0 3.0 0.00 0.00 0.00 84 1014.9
20260903074319 77 207 0.0 0.0 0.00 0.00 0.00 84 1014.9
20260903073318 77 218 0.0 3.0 0.00 0.00 0.00 84 1014.9
20260903072818 77 236 0.0 3.0 0.00 0.00 0.00 84 1014.9
20260903072348 77 200 0.0 3.0 0.00 0.00 0.00 84 1014.9
20260903071848 77 229 0.0 1.0 0.00 0.00 0.00 84 1014.9
20260903071348 77 229 0.0 1.0 0.00 0.00 0.00 85 1014.9
20260903070848 77 229 0.0 1.0 0.00 0.00 0.00 85 1014.9
20260903065849 77 229 0.0 1.0 0.00 0.00 0.00 85 1014.9
20260903065347 76 234 0.0 2.0 0.00 0.00 0.00 86 1014.7
20260903064347 78 213 0.0 2.0 0.00 0.00 0.00 84 1014.8
20260903063847 78 213 0.0 2.0 0.00 0.00 0.00 83 1014.8
20260903063347 78 207 0.0 2.0 0.00 0.00 0.00 83 1014.9
20260903062847 78 212 0.0 1.0 0.00 0.00 0.00 84 1015.0
20260903062346 78 197 0.0 0.0 0.00 0.00 0.00 83 1015.0
20260903061846 78 197 0.0 2.0 0.00 0.00 0.00 83 1015.0
20260903061346 78 197 0.0 2.0 0.00 0.00 0.00 83 1015.0
20260903060846 78 211 0.0 2.0 0.00 0.00 0.00 83 1015.1
20260903060346 78 234 0.0 2.0 0.00 0.00 0.00 83 1015.1
20260903055846 78 292 2.0 4.0 0.00 0.00 0.00 83 1015.0
20260903055346 78 209 1.0 4.0 0.00 0.00 0.00 83 1015.0
20260903054345 78 226 1.0 3.0 0.00 0.00 0.00 83 1015.0
20260903053845 79 217 2.0 3.0 0.00 0.00 0.00 83 1014.9
20260903053345 79 217 1.0 5.0 0.00 0.00 0.00 83 1014.9
20260903052344 79 227 0.0 4.0 0.00 0.00 0.00 83 1014.8
20260903051844 79 223 1.0 4.0 0.00 0.00 0.00 83 1014.8
20260903051344 79 238 1.0 4.0 0.00 0.00 0.00 83 1014.8
20260903050844 79 202 1.0 4.0 0.00 0.00 0.00 83 1014.8
20260903050344 79 218 0.0 5.0 0.00 0.00 0.00 83 1014.8
20260903045844 79 220 1.0 5.0 0.00 0.00 0.00 83 1014.7
20260903045344 79 240 2.0 3.0 0.00 0.00 0.00 83 1014.7
20260903044844 79 188 1.0 5.0 0.00 0.00 0.00 83 1014.6
20260903044343 79 198 0.0 5.0 0.00 0.00 0.00 83 1014.6
20260903043343 79 207 2.0 4.0 0.00 0.00 0.00 83 1014.6
20260903042843 79 200 1.0 4.0 0.00 0.00 0.00 83 1014.6
20260903042343 79 221 1.0 4.0 0.00 0.00 0.00 83 1014.6
20260903040842 79 218 1.0 5.0 0.00 0.00 0.00 83 1014.5
20260903040342 79 198 3.0 5.0 0.00 0.00 0.00 83 1014.6
20260903035842 79 207 1.0 5.0 0.00 0.00 0.00 83 1014.6
20260903035342 79 213 2.0 5.0 0.00 0.00 0.00 83 1014.5
20260903034842 80 228 3.0 5.0 0.00 0.00 0.00 82 1014.7
20260903034342 80 186 3.0 5.0 0.00 0.00 0.00 82 1014.6
20260903033842 80 198 1.0 5.0 0.00 0.00 0.00 82 1014.7
20260903033341 80 194 2.0 4.0 0.00 0.00 0.00 82 1014.7
20260903032841 80 227 1.0 5.0 0.00 0.00 0.00 82 1014.7
20260903032341 80 196 2.0 5.0 0.00 0.00 0.00 82 1014.8
20260903031841 80 207 2.0 5.0 0.00 0.00 0.00 82 1014.8
20260903031341 80 206 1.0 5.0 0.00 0.00 0.00 82 1014.8
20260903030840 80 198 4.0 4.0 0.00 0.00 0.00 82 1014.9
20260903030340 80 204 1.0 6.0 0.00 0.00 0.00 82 1014.9
20260903025840 80 230 3.0 6.0 0.00 0.00 0.00 82 1014.9
20260903025340 80 217 2.0 5.0 0.00 0.00 0.00 82 1014.9
20260903024840 80 204 2.0 4.0 0.00 0.00 0.00 82 1015.0
20260903024340 80 214 1.0 4.0 0.00 0.00 0.00 82 1014.9
20260903023840 80 231 0.0 4.0 0.00 0.00 0.00 82 1014.9
20260903023339 80 196 1.0 3.0 0.00 0.00 0.00 82 1014.9
20260903022839 80 208 1.0 3.0 0.00 0.00 0.00 82 1015.0
20260903022339 80 208 1.0 3.0 0.00 0.00 0.00 81 1015.0
20260903020839 80 217 1.0 4.0 0.00 0.00 0.00 81 1015.0
20260903020338 81 229 0.0 4.0 0.00 0.00 0.00 81 1015.0
20260903015838 81 204 0.0 3.0 0.00 0.00 0.00 81 1014.9
20260903015339 81 236 1.0 3.0 0.00 0.00 0.00 81 1014.9
20260903014838 80 213 0.0 3.0 0.00 0.00 0.00 81 1014.8
20260903014338 81 213 0.0 3.0 0.00 0.00 0.00 80 1014.8
20260903013837 81 241 2.0 4.0 0.00 0.00 0.00 80 1014.7
20260903013337 81 204 1.0 4.0 0.00 0.00 0.00 81 1014.5
20260903012837 81 221 1.0 4.0 0.00 0.00 0.00 80 1014.5
20260903012337 81 215 0.0 4.0 0.00 0.00 0.00 80 1014.5
20260903011837 81 232 2.0 4.0 0.00 0.00 0.00 80 1014.4
20260903011337 81 203 1.0 4.0 0.00 0.00 0.00 80 1014.4
20260903010837 81 229 2.0 4.0 0.00 0.00 0.00 79 1014.4
20260903010337 82 216 1.0 3.0 0.00 0.00 0.00 79 1014.5
20260903005837 82 216 1.0 5.0 0.00 0.00 0.00 78 1014.3
20260903005336 83 202 1.0 5.0 0.00 0.00 0.00 77 1014.2
20260903004336 83 213 2.0 5.0 0.00 0.00 0.00 77 1014.2
20260903003836 83 200 4.0 5.0 0.00 0.00 0.00 77 1014.2
20260903003335 83 213 4.0 5.0 0.00 0.00 0.00 78 1014.2
20260903001835 84 213 1.0 4.0 0.00 0.00 0.00 77 1014.2
20260903001335 84 202 2.0 3.0 0.00 0.00 0.00 77 1014.2
20260903000835 84 220 2.0 4.0 0.00 0.00 0.00 76 1014.2
20260903000335 84 209 1.0 5.0 0.00 0.00 0.00 76 1014.2
20260902235834 85 219 3.0 5.0 0.00 0.00 0.00 75 1013.9
20260902235334 85 211 1.0 4.0 0.00 0.00 0.00 75 1013.9
20260902234334 86 213 1.0 4.0 0.00 0.00 0.00 73 1013.9
20260902233334 87 211 1.0 6.0 0.00 0.00 0.00 72 1014.0
20260902232334 87 200 2.0 7.0 0.00 0.00 0.00 71 1014.1
20260902231834 87 196 2.0 7.0 0.00 0.00 0.00 70 1013.9
20260902230333 88 200 2.0 8.0 0.00 0.00 0.00 69 1013.9
20260902225833 89 198 2.0 10.0 0.00 0.00 0.00 69 1014.0
20260902224833 89 197 4.0 11.0 0.00 0.00 0.00 68 1013.9
20260902224332 89 205 3.0 11.0 0.00 0.00 0.00 67 1013.9
20260902223332 90 190 2.0 11.0 0.00 0.00 0.00 67 1013.8
20260902222331 90 196 10.0 11.0 0.00 0.00 0.00 66 1013.9
20260902221831 90 250 3.0 11.0 0.00 0.00 0.00 65 1014.0
20260902221331 91 167 4.0 11.0 0.00 0.00 0.00 64 1014.2
20260902220831 91 196 3.0 11.0 0.00 0.00 0.00 64 1014.3
20260902215831 91 186 4.0 9.0 0.00 0.00 0.00 65 1014.1
20260902215331 91 277 3.0 11.0 0.00 0.00 0.00 64 1014.0
20260902214830 91 209 6.0 13.0 0.00 0.00 0.00 63 1014.0
20260902214330 91 192 7.0 13.0 0.00 0.00 0.00 63 1014.1
20260902213830 91 219 6.0 12.0 0.00 0.00 0.00 63 1014.0
20260902213330 91 200 3.0 13.0 0.00 0.00 0.00 64 1014.1
20260902212830 91 182 4.0 15.0 0.00 0.00 0.00 64 1014.2
20260902212330 91 281 11.0 15.0 0.00 0.00 0.00 62 1014.0
20260902211830 91 232 7.0 12.0 0.00 0.00 0.00 62 1014.1
20260902210829 92 218 3.0 13.0 0.00 0.00 0.00 61 1014.3
20260902205829 91 206 7.0 14.0 0.00 0.00 0.00 62 1014.3
20260902205329 92 174 7.0 13.0 0.00 0.00 0.00 61 1014.4
20260902204829 92 238 4.0 12.0 0.00 0.00 0.00 63 1014.5
20260902204329 92 173 3.0 12.0 0.00 0.00 0.00 62 1014.5
20260902203328 92 200 2.0 12.0 0.00 0.00 0.00 61 1014.7
20260902202828 92 195 9.0 14.0 0.00 0.00 0.00 62 1014.8
20260902201828 92 184 4.0 13.0 0.00 0.00 0.00 60 1015.0
20260902201328 92 173 4.0 14.0 0.00 0.00 0.00 62 1015.0
20260902200828 92 218 3.0 14.0 0.00 0.00 0.00 62 1015.0
20260902195827 92 200 10.0 11.0 0.00 0.00 0.00 62 1015.1
20260902195327 92 213 4.0 11.0 0.00 0.00 0.00 60 1015.2
20260902194827 92 170 4.0 11.0 0.00 0.00 0.00 60 1015.2
20260902194326 92 171 4.0 11.0 0.00 0.00 0.00 59 1015.3
20260902193326 93 186 4.0 9.0 0.00 0.00 0.00 61 1015.5
20260902192826 92 196 5.0 13.0 0.00 0.00 0.00 60 1015.4
20260902192326 92 165 2.0 13.0 0.00 0.00 0.00 58 1015.5
20260902191326 93 173 6.0 7.0 0.00 0.00 0.00 61 1015.6